KAZSAT 3

Last updated on Mon Apr 24 2017 00:17:22 GMT+0000 (Coordinated Universal Time)

1 39728U 14023B 17112.25284360 .00000052 00000-0 00000-0 0 9998 2 39728 0.0190 259.3119 0001118 205.8790 254.8215 1.00271148 10926
UTC large
Height (km)
Speed (km/s)
/
Latitude / Longitude
Inclination (degrees)
Orbital Period (minutes)
Azimuth
Elevation
Range (km)
Doppler Factor

Next 0 passes for location: London (51.5072 / 0.1276)

Sorry there are no passes over London.
KAZSAT 3